View from above orbital plane
|
View from above satellite
|
Ground track
|
The orbit data is extracted from the following two-line orbital elements,
1 22803U 93059B 21061.59118245 -.00000186 00000-0 -68910-4 0 9991
2 22803 70.9871 275.2606 0015474 127.7590 232.4938 14.16832315419862
Epoch (UTC): | 02 March 2021 14:11:18 |
Eccentricity: | 0.0015474 |
inclination: | 70.9871° |
perigee height: | 825 km |
apogee height: | 847 km |
right ascension of ascending node: | 275.2606° |
argument of perigee: | 127.7590° |
revolutions per day: | 14.16832315 |
mean anomaly at epoch: | 232.4938° |
orbit number at epoch: | 41986 |
The dashed part of the orbit path shows where the satellite is in the earth's shadow,
|
|